Bigfork, MN

8:52 AM CST on February 25, 2017 (GMT -0600)
Bigfork Municipal

Weather History for KFOZ - September, 2012

Change the Weather History Date:

Tuesday, September 25, 2012

  Actual Average (KGPZ) Record (KGPZ)
Temperature  
Mean Temperature 40 °F -  
Max Temperature 57 °F 64 °F 81 °F (1933)
Min Temperature 24 °F 38 °F 18 °F (1947)
Degree Days  
Heating Degree Days 24    
Moisture  
Dew Point 30 °F    
Average Humidity 72    
Maximum Humidity 93    
Minimum Humidity 36    
Precipitation  
Precipitation 0.00 in - - ()
Sea Level Pressure  
Sea Level Pressure 29.94 in    
Wind  
Wind Speed 1 mph (NNW)    
Max Wind Speed 9 mph    
Max Gust Speed -    
Visibility 10 miles    
Events      
Averages and records for this station are not official NWS values.
T = Trace of Precipitation, MM = Missing Value Source: NWS Daily Summary

Daily Weather History Graph

Daily Weather History Graph

Search for Another Location

Airport or City:

Trip Planner

Search our weather history database for the weather conditions in past years. The results will help you decide how hot, cold, wet, or windy it might be!

Date:

Astronomy

Sep. 25, 2012 Rise Set
Actual Time 7:06 AM CDT 7:05 PM CDT
Civil Twilight 6:35 AM CDT 7:35 PM CDT
Nautical Twilight 5:59 AM CDT 8:11 PM CDT
Astronomical Twilight 5:22 AM CDT 8:48 PM CDT
Moon 4:45 PM CDT 2:10 AM CDT
Length of Visible Light 13h 00m
Length of Day
11h 58m
Waxing Gibbous, 80% of the Moon is Illuminated
Sep 25
Waxing Gibbous
Sep 29
Full
Oct 8
Last Quarter
Oct 15
New
Oct 21
First Quarter

Hourly Weather History & Observations

Time (CDT) Temp. Windchill Dew Point Humidity Pressure Visibility Wind Dir Wind Speed Gust Speed Precip Events Conditions
12:33 AM 30.2 °F - 28.4 °F 93% 29.88 in 10.0 mi Calm Calm - N/A   Clear
12:53 AM 30.2 °F - 26.6 °F 86% 29.88 in 10.0 mi Calm Calm - N/A   Clear
1:13 AM 28.4 °F - 26.6 °F 93% 29.89 in 10.0 mi Calm Calm - N/A   Clear
1:33 AM 28.4 °F - 26.6 °F 93% 29.89 in 10.0 mi Calm Calm - N/A   Clear
1:53 AM 28.4 °F - 26.6 °F 93% 29.89 in 10.0 mi Calm Calm - N/A   Clear
2:13 AM 28.4 °F - 26.6 °F 93% 29.89 in 10.0 mi Calm Calm - N/A   Clear
2:33 AM 28.4 °F - 26.6 °F 93% 29.89 in 10.0 mi Calm Calm - N/A   Clear
2:53 AM 26.6 °F - 24.8 °F 93% 29.90 in 10.0 mi Calm Calm - N/A   Clear
3:13 AM 26.6 °F - 24.8 °F 93% 29.90 in 10.0 mi Calm Calm - N/A   Clear
3:33 AM 26.6 °F - 24.8 °F 93% 29.90 in 10.0 mi Calm Calm - N/A   Clear
3:53 AM 26.6 °F - 24.8 °F 93% 29.90 in 10.0 mi Calm Calm - N/A   Clear
4:13 AM 26.6 °F - 24.8 °F 93% 29.91 in 10.0 mi Calm Calm - N/A   Clear
4:33 AM 26.6 °F - 24.8 °F 93% 29.91 in 10.0 mi Calm Calm - N/A   Clear
4:53 AM 26.6 °F - 23.0 °F 86% 29.92 in 10.0 mi Calm Calm - N/A   Clear
5:13 AM 26.6 °F - 23.0 °F 86% 29.91 in 10.0 mi Calm Calm - N/A   Clear
5:33 AM 24.8 °F - 21.2 °F 86% 29.91 in 10.0 mi Calm Calm - N/A   Clear
5:53 AM 26.6 °F - 23.0 °F 86% 29.91 in 10.0 mi Calm Calm - N/A   Clear
6:13 AM 24.8 °F - 21.2 °F 86% 29.92 in 10.0 mi Calm Calm - N/A   Clear
6:33 AM 24.8 °F - 21.2 °F 86% 29.92 in 10.0 mi Calm Calm - N/A   Clear
6:53 AM 24.8 °F - 21.2 °F 86% 29.92 in 10.0 mi Calm Calm - N/A   Clear
7:13 AM 24.8 °F - 21.2 °F 86% 29.92 in 10.0 mi Calm Calm - N/A   Clear
7:33 AM 24.8 °F - 21.2 °F 86% 29.92 in 10.0 mi Calm Calm - N/A   Clear
7:53 AM 26.6 °F - 24.8 °F 93% 29.93 in 10.0 mi Calm Calm - N/A   Clear
8:13 AM 30.2 °F - 26.6 °F 86% 29.94 in 10.0 mi Calm Calm - N/A   Clear
8:33 AM 32.0 °F - 28.4 °F 87% 29.94 in 10.0 mi Calm Calm - N/A   Scattered Clouds
8:53 AM 35.6 °F - 32.0 °F 87% 29.94 in 10.0 mi Calm Calm - N/A   Mostly Cloudy
9:13 AM 39.2 °F - 35.6 °F 87% 29.95 in 10.0 mi Calm Calm - N/A   Scattered Clouds
9:33 AM 44.6 °F - 37.4 °F 76% 29.95 in 10.0 mi Calm Calm - N/A   Clear
9:53 AM 46.4 °F - 37.4 °F 71% 29.95 in 10.0 mi Calm Calm - N/A   Clear
10:13 AM 50.0 °F - 35.6 °F 58% 29.95 in 10.0 mi East 3.5 mph - N/A   Clear
10:33 AM 51.8 °F - 35.6 °F 54% 29.95 in 10.0 mi ENE 4.6 mph - N/A   Scattered Clouds
10:53 AM 51.8 °F - 35.6 °F 54% 29.95 in 10.0 mi Calm Calm - N/A   Mostly Cloudy
11:13 AM 51.8 °F - 35.6 °F 54% 29.96 in 10.0 mi Calm Calm - N/A   Overcast
11:33 AM 51.8 °F - 33.8 °F 50% 29.96 in 10.0 mi Calm Calm - N/A   Overcast
11:53 AM 51.8 °F - 33.8 °F 50% 29.96 in 10.0 mi North 5.8 mph - N/A   Overcast
12:13 PM 51.8 °F - 33.8 °F 50% 29.96 in 10.0 mi NNW 5.8 mph - N/A   Overcast
12:33 PM 51.8 °F - 32.0 °F 47% 29.96 in 10.0 mi Calm Calm - N/A   Overcast
12:53 PM 51.8 °F - 32.0 °F 47% 29.96 in 10.0 mi NW 5.8 mph - N/A   Overcast
1:13 PM 53.6 °F - 33.8 °F 47% 29.96 in 10.0 mi NW 3.5 mph - N/A   Overcast
2:13 PM 55.4 °F - 32.0 °F 41% 29.94 in 10.0 mi SW 6.9 mph - N/A   Overcast
2:33 PM 55.4 °F - 30.2 °F 38% 29.94 in 10.0 mi West 6.9 mph - N/A   Mostly Cloudy
2:53 PM 57.2 °F - 30.2 °F 36% 29.93 in 10.0 mi SW 6.9 mph - N/A   Mostly Cloudy
3:13 PM 57.2 °F - 30.2 °F 36% 29.93 in 10.0 mi WSW 5.8 mph - N/A   Scattered Clouds
3:33 PM 55.4 °F - 30.2 °F 38% 29.93 in 10.0 mi West 5.8 mph - N/A   Scattered Clouds
3:53 PM 55.4 °F - 30.2 °F 38% 29.93 in 10.0 mi NE 3.5 mph - N/A   Scattered Clouds
4:13 PM 55.4 °F - 30.2 °F 38% 29.93 in 10.0 mi North 4.6 mph - N/A   Mostly Cloudy
4:33 PM 57.2 °F - 30.2 °F 36% 29.93 in 10.0 mi North 8.1 mph - N/A   Mostly Cloudy
4:53 PM 55.4 °F - 32.0 °F 41% 29.93 in 10.0 mi NNW 6.9 mph - N/A   Overcast
5:13 PM 55.4 °F - 32.0 °F 41% 29.93 in 10.0 mi NNW 6.9 mph - N/A   Scattered Clouds
5:33 PM 51.8 °F - 37.4 °F 58% 29.94 in 10.0 mi North 9.2 mph - N/A   Clear
5:53 PM 51.8 °F - 37.4 °F 58% 29.95 in 10.0 mi North 5.8 mph - N/A   Scattered Clouds
6:13 PM 51.8 °F - 37.4 °F 58% 29.95 in 10.0 mi North 4.6 mph - N/A   Scattered Clouds
6:33 PM 50.0 °F - 37.4 °F 62% 29.96 in 10.0 mi NNW 4.6 mph - N/A   Clear
6:53 PM 48.2 °F - 35.6 °F 62% 29.96 in 10.0 mi NNW 3.5 mph - N/A   Clear
7:13 PM 46.4 °F 45.2 °F 35.6 °F 66% 29.97 in 10.0 mi North 3.5 mph - N/A   Clear
7:53 PM 42.8 °F - 35.6 °F 76% 29.97 in 10.0 mi Calm Calm - N/A   Clear
8:13 PM 39.2 °F - 33.8 °F 81% 29.98 in 10.0 mi Calm Calm - N/A   Clear
8:33 PM 39.2 °F 37.0 °F 33.8 °F 81% 29.98 in 10.0 mi North 3.5 mph - N/A   Clear
8:53 PM 37.4 °F - 33.8 °F 87% 29.99 in 10.0 mi Calm Calm - N/A   Clear
9:13 PM 35.6 °F - 33.8 °F 93% 29.99 in 10.0 mi Calm Calm - N/A   Clear
9:33 PM 35.6 °F - 30.2 °F 81% 30.00 in 10.0 mi Calm Calm - N/A   Clear
9:53 PM 33.8 °F - 30.2 °F 87% 30.00 in 10.0 mi Calm Calm - N/A   Clear
10:13 PM 33.8 °F - 28.4 °F 81% 30.01 in 10.0 mi Calm Calm - N/A   Clear
10:33 PM 32.0 °F - 28.4 °F 87% 30.01 in 10.0 mi Calm Calm - N/A   Clear
10:53 PM 30.2 °F - 28.4 °F 93% 30.01 in 10.0 mi Calm Calm - N/A   Clear
11:13 PM 30.2 °F - 28.4 °F 93% 30.02 in 10.0 mi Calm Calm - N/A   Clear
11:33 PM 30.2 °F - 28.4 °F 93% 30.02 in 10.0 mi Calm Calm - N/A   Clear